Location: S�tio Afonso Gruber
(26.1760°S, 49.5250°W)
Time: 00:47:57
(UTC+00:00)

Intelsat 5-3 Rocket - Pass Details

Date: 09 October 2020
Orbit: 281 x 6111 km, 23.6° (Epoch: 22 October)

Event Time Altitude Azimuth Distance (km) Brightness Sun altitude
Rises 00:50:50 0° 284° (WNW) 3,315 6.7 -43.9°
Enters shadow 00:52:09 - 286° (WNW) 2,850 6.2 -44.1°
Exits shadow 01:22:59 - 92° (E) 8,220 8.0 -49.1°
Sets 01:27:14 0° 92° (E) 9,210 8.3 -49.7°
